Retour au catalogue

STARLINK-31178

ActifCommunicationsVLEO
NORAD 59025·PAYLOAD·🇺🇸 United States

Lancé Feb 25, 2024 depuis Cape Canaveral Space Force Station

Loading…

Prochains Passages (prochaines 24 heures)

TLE

FraisSource: CelesTrak SupGP

Époque: Sep 15, 2026, 01:48 UTC

1 59025C 24038C   26258.07548611 -.00028610  00000+0 -10361-2 0  2582
2 59025  43.0036  37.6377 0001454 269.8158 329.4670 15.27596916    18

Suivez STARLINK-31178 en temps réel avec AllMySat

Download on the App Store